Weather reports worldwide

Advertisment
Rheinstetten, Germany (10731): temperature & dewpoint: 10.01.2018 08:00:00 - 16.01.2018 08:00:00 (CET)Rheinstetten, Germany (10731): temperature 5cm & temperature -5cm: 10.01.2018 08:00:00 - 16.01.2018 08:00:00 (CET)Rheinstetten, Germany (10731): temperature -20cm & temperature -100cm: 10.01.2018 08:00:00 - 16.01.2018 08:00:00 (CET)Rheinstetten, Germany (10731): wind speed & gusts: 10.01.2018 08:00:00 - 16.01.2018 08:00:00 (CET)Rheinstetten, Germany (10731): wind direction: 10.01.2018 08:00:00 - 16.01.2018 08:00:00 (CET)Rheinstetten, Germany (10731): reduced air pressure: 10.01.2018 08:00:00 - 16.01.2018 08:00:00 (CET)Rheinstetten, Germany (10731): visibility: 10.01.2018 08:00:00 - 16.01.2018 08:00:00 (CET)Rheinstetten, Germany (10731): sunshine duration: 10.01.2018 08:00:00 - 16.01.2018 08:00:00 (CET)Rheinstetten, Germany (10731): precipitation: 10.01.2018 08:00:00 - 16.01.2018 08:00:00 (CET)
Date & Time tt [°C] td [°C] tt 5cm [°C] tt -5cm [°C] tt -20cm [°C] tt -100cm [°C] ff [km/h] ff [kn] fx [km/h] fx [kn] dd ppp [hPa] vv [km] sd [min] rr [mm]
16.01.2018 08:00:00 8,0 5,6 6,9 5,7 5,1 6,0 34 18 59 32 SW 998,1 30 0 0,9
16.01.2018 07:00:00 7,4 6,0 6,4 5,6 4,8 6,1 34 19 55 30 WSW 997,8 9 0 1,9
16.01.2018 06:00:00 7,4 5,5 6,2 5,4 4,6 6,1 27 15 43 23 SW 998,6 12 0 1,1
16.01.2018 05:00:00 7,5 5,1 6,1 5,3 4,5 6,1 31 17 46 25 SW 999,7 16 0 1,4
16.01.2018 04:00:00 7,1 5,0 6,0 5,1 4,3 6,2 27 14 47 26 SSW 1000,3 9 0 0,1
16.01.2018 03:00:00 7,2 4,9 6,1 5,0 4,2 6,2 32 17 52 28 SW 1001,2 70 0 0,4
16.01.2018 02:00:00 7,2 4,7 6,0 4,9 4,0 6,2 31 17 60 32 SW 1001,4 59 0 0,0
16.01.2018 01:00:00 7,6 4,1 6,1 4,8 3,9 6,3 45 24 60 32 SW 1001,4 31 0 0,1
16.01.2018 00:00:00 7,0 4,1 5,7 4,7 3,8 6,3 37 20 66 35 SW 1001,9 36 0 1,2
15.01.2018 23:00:00 7,2 4,0 5,5 4,5 3,5 6,3 46 25 71 38 SW 1002,4 6 0 0,8
15.01.2018 22:00:00 7,0 3,9 5,4 4,3 3,3 6,3 45 24 63 34 SW 1002,6 12 0 1,7
15.01.2018 21:00:00 6,4 4,4 5,1 4,0 3,1 6,3 28 15 43 23 SSW 1003,8 8 0 1,6
15.01.2018 20:00:00 6,4 4,1 5,0 3,8 2,8 6,4 28 15 44 24 SW 1005,6 8 0 1,2
15.01.2018 19:00:00 7,7 2,5 5,3 3,5 2,6 6,3 28 15 47 26 SW 1006,3 10 0 0,0
15.01.2018 18:00:00 8,0 1,9 6,6 3,0 2,3 6,4 27 15 43 23 SSW 1007,6 42 0 0,0
15.01.2018 17:00:00 7,9 1,9 6,7 2,0 2,1 6,4 18 10 41 22 SW 1008,9 25 0 0,0
15.01.2018 16:00:00 3,9 0,5 3,6 1,8 1,9 6,4 6 3 13 7 SE 1010,2 25 0 0,0
15.01.2018 15:00:00 3,2 -0,1 3,5 0,6 1,8 6,4 3 1 11 6 NW 1012,7 15 0 0,0
15.01.2018 14:00:00 2,5 -0,3 2,5 0,0 1,8 6,5 8 4 11 6 S 1014,3 15 0 0,0
15.01.2018 13:00:00 1,9 -0,9 2,0 0,0 1,8 6,5 7 4 12 6 SW 1015,9 15 0 0,0
15.01.2018 12:00:00 1,0 -0,8 0,8 0,0 1,9 6,5 8 4 9 5 S 1017,4 15 0 0,0
15.01.2018 11:00:00 0,7 -1,4 0,0 0,0 1,9 6,5 5 3 7 4 S 1018,5 15 0 0,0
15.01.2018 10:00:00 0,0 -1,5 -0,4 -0,1 1,9 6,5 6 4 8 5 SE 1019,1 12 17 0,0
15.01.2018 09:00:00 -1,1 -2,1 -1,1 -0,1 2,0 6,5 6 3 8 4 SSE 1019,8 12 0 0,0
15.01.2018 08:00:00 -1,6 -2,4 -1,7 -0,1 2,0 6,5 4 2 6 3 S 1020,0 9 0 0,0
15.01.2018 07:00:00 -2,6 -3,2 -5,1 -0,1 2,1 6,6 4 2 6 3 WSW 1020,6 9 0 0,0
15.01.2018 06:00:00 -1,9 -2,9 -4,1 0,0 2,2 6,6 4 2 6 3 NNE 1020,6 10 0 0,0
15.01.2018 05:00:00 -1,5 -2,4 -1,7 0,0 2,2 6,6 3 2 6 4 S 1021,3 9 0 0,0
15.01.2018 04:00:00 -2,4 -3,1 -3,0 0,0 2,3 6,6 5 3 6 4 NNW 1021,9 10 0 0,0
15.01.2018 03:00:00 -3,1 -3,8 -4,6 0,0 2,4 6,6 5 3 6 4 SSE 1022,2 9 0 0,0
15.01.2018 02:00:00 -3,0 -3,8 -4,5 0,1 2,5 6,6 5 3 6 3 SE 1022,5 8 0 0,0
15.01.2018 01:00:00 -2,8 -3,6 -4,6 0,2 2,6 6,7 3 2 5 3 ESE 1022,8 7 0 0,0
15.01.2018 00:00:00 -2,6 -3,3 -4,6 0,3 2,8 6,7 3 1 6 4 SE 1022,9 7 0 0,0
14.01.2018 23:00:00 -2,0 -2,8 -3,8 0,4 2,9 6,7 3 2 4 2 S 1023,1 8 0 0,0
14.01.2018 22:00:00 -1,7 -2,8 -4,3 0,4 3,1 6,7 3 2 5 3 SE 1022,9 8 0 0,0
14.01.2018 21:00:00 -0,8 -2,3 -2,9 0,5 3,3 6,7 3 2 8 5 SSE 1022,8 12 0 0,0
14.01.2018 20:00:00 0,7 -1,8 -3,2 0,5 3,6 6,7 4 2 9 5 E 1022,6 16 0 0,0
14.01.2018 19:00:00 1,8 -1,8 -1,0 1,2 3,9 6,7 9 5 13 7 E 1022,2 19 0 0,0
14.01.2018 18:00:00 2,5 -1,4 0,6 2,0 4,1 6,8 10 5 18 10 E 1022,3 20 0 0,0
14.01.2018 17:00:00 3,6 -0,9 1,9 3,2 4,2 6,8 15 8 20 11 ENE 1022,0 20 29 0,0
14.01.2018 16:00:00 4,3 -0,7 3,5 4,5 4,1 6,8 15 8 24 13 ENE 1021,8 20 47 0,0
14.01.2018 15:00:00 5,0 -0,7 5,6 5,4 3,8 6,8 18 10 28 15 ENE 1021,5 20 60 0,0
14.01.2018 14:00:00 5,2 -0,5 6,4 5,5 3,4 6,8 18 10 27 15 ENE 1021,4 15 60 0,0
14.01.2018 13:00:00 5,2 -0,3 6,7 4,8 3,0 6,8 21 11 30 16 ENE 1021,7 17 60 0,0
14.01.2018 12:00:00 4,7 -0,5 5,9 3,3 2,6 6,9 18 10 33 18 ENE 1022,2 14 60 0,0
14.01.2018 11:00:00 3,9 -0,6 4,6 1,2 2,6 6,9 19 11 32 17 ENE 1022,6 12 60 0,0
14.01.2018 10:00:00 2,7 -0,9 2,7 0,3 2,6 6,9 16 9 24 13 ENE 1022,5 11 47 0,0
14.01.2018 09:00:00 1,4 -1,3 0,2 0,3 2,7 6,9 13 7 22 12 ENE 1022,3 9 0 0,0
14.01.2018 08:00:00 1,3 -1,3 -0,5 0,3 2,8 6,9 14 8 19 11 ENE 1022,2 9 0 0,0
14.01.2018 07:00:00 1,2 -1,3 -0,8 0,4 2,9 6,9 12 7 21 11 ENE 1021,9 9 0 0,0
14.01.2018 06:00:00 1,7 -1,1 0,0 0,4 3,0 6,9 15 8 23 12 ENE 1021,6 12 0 0,0
14.01.2018 05:00:00 2,2 -1,1 0,5 0,2 3,2 6,9 14 7 23 12 ENE 1021,6 13 0 0,0
14.01.2018 04:00:00 2,3 -0,9 0,5 0,4 3,3 6,9 15 8 22 12 ENE 1021,5 12 0 0,0
14.01.2018 03:00:00 2,2 -0,9 0,2 0,6 3,5 6,9 14 7 19 11 ENE 1021,6 14 0 0,0
14.01.2018 02:00:00 2,9 -0,7 1,2 0,9 3,7 6,9 14 7 24 13 ENE 1021,4 13 0 0,0
14.01.2018 01:00:00 3,5 -0,5 1,7 1,1 4,0 6,9 14 8 21 11 ENE 1021,5 14 0 0,0
14.01.2018 00:00:00 3,2 -0,5 0,7 1,3 4,2 6,9 13 7 22 12 ENE 1021,7 14 0 0,0
13.01.2018 23:00:00 3,4 -0,3 1,0 1,8 4,5 6,9 11 6 18 10 ENE 1022,0 14 0 0,0
13.01.2018 22:00:00 3,9 0,3 1,7 2,3 4,7 6,9 13 7 18 10 ENE 1022,0 12 0 0,0
13.01.2018 21:00:00 4,6 0,8 2,7 3,0 4,9 7,0 13 7 18 10 ENE 1022,1 13 0 0,0
13.01.2018 20:00:00 5,5 0,6 4,4 3,9 4,9 7,0 11 6 24 13 ENE 1022,5 16 0 0,0
13.01.2018 19:00:00 6,0 0,2 5,2 4,0 5,0 7,0 11 6 22 12 E 1022,6 18 0 0,0
13.01.2018 18:00:00 6,1 0,1 5,4 4,2 5,0 7,0 16 8 27 15 E 1022,8 19 0 0,0
13.01.2018 17:00:00 5,9 0,9 5,2 4,3 5,0 7,0 11 6 23 12 E 1023,1 18 0 0,0
13.01.2018 16:00:00 5,6 1,7 5,1 4,5 5,0 7,0 14 8 19 10 ENE 1023,1 15 0 0,0
13.01.2018 15:00:00 5,5 1,8 5,1 4,6 4,9 7,0 11 6 18 10 ENE 1023,4 15 0 0,0
13.01.2018 14:00:00 5,5 1,8 5,2 4,6 4,9 7,0 11 6 18 10 ENE 1023,8 20 0 0,0
13.01.2018 13:00:00 5,4 1,5 5,2 4,6 4,8 7,0 9 5 20 11 ENE 1024,4 20 0 0,0
13.01.2018 12:00:00 5,3 1,2 5,2 4,5 4,7 7,0 12 6 18 10 ENE 1024,8 20 0 0,0
13.01.2018 11:00:00 5,2 1,2 5,1 4,3 4,6 7,0 10 6 20 11 ENE 1025,4 16 0 0,0
13.01.2018 10:00:00 4,9 1,3 4,6 3,8 4,6 7,0 13 7 19 10 ENE 1025,3 16 0 0,0
13.01.2018 09:00:00 4,5 1,4 3,9 3,5 4,6 7,0 9 5 15 8 NNE 1025,4 14 0 0,0
13.01.2018 08:00:00 4,4 1,1 3,9 3,5 4,6 7,0 10 5 20 11 NE 1025,8 12 0 0,0
13.01.2018 07:00:00 4,5 0,8 4,0 3,5 4,6 7,0 16 8 24 13 ENE 1025,7 12 0 0,0
13.01.2018 06:00:00 4,8 0,6 4,2 3,5 4,7 7,0 11 6 20 11 NE 1025,9 12 0 0,0
13.01.2018 05:00:00 4,9 0,7 4,3 3,5 4,7 7,0 12 6 17 9 ENE 1026,2 12 0 0,0
13.01.2018 04:00:00 4,9 0,6 4,2 3,4 4,7 7,0 9 5 15 8 ENE 1026,6 12 0 0,0
13.01.2018 03:00:00 4,8 0,6 4,2 3,3 4,7 7,0 9 5 19 10 ENE 1026,8 13 0 0,0
13.01.2018 02:00:00 4,9 0,4 4,2 3,2 4,8 7,1 10 6 18 10 ENE 1026,6 14 0 0,0
13.01.2018 01:00:00 4,6 0,5 3,4 2,8 4,9 7,1 8 5 15 8 ENE 1026,7 15 0 0,0
13.01.2018 00:00:00 4,2 0,3 2,2 2,7 5,1 7,1 11 6 18 10 ENE 1026,9 16 0 0,0
12.01.2018 23:00:00 4,3 0,4 2,9 3,0 5,4 7,1 13 7 19 10 ENE 1027,0 17 0 0,0
12.01.2018 22:00:00 3,8 0,3 1,9 3,3 5,6 7,1 13 7 23 12 ENE 1027,0 17 0 0,0
12.01.2018 21:00:00 4,7 0,7 4,0 4,3 5,8 7,1 14 7 25 13 ENE 1026,8 16 0 0,0
12.01.2018 20:00:00 4,9 1,1 4,4 4,6 5,9 7,1 16 9 31 17 ENE 1026,7 16 0 0,0
12.01.2018 19:00:00 5,1 1,5 4,7 4,8 6,1 7,1 11 6 26 14 E 1026,7 15 0 0,0
12.01.2018 18:00:00 5,0 1,7 4,5 4,8 6,3 7,1 14 8 22 12 ENE 1026,6 16 0 0,0
12.01.2018 17:00:00 5,3 1,9 3,9 5,7 6,4 7,1 13 7 21 11 ENE 1026,1 15 24 0,0
12.01.2018 16:00:00 6,4 2,8 6,8 7,0 6,3 7,1 15 8 21 11 NNE 1025,6 12 48 0,0
12.01.2018 15:00:00 6,5 3,0 6,8 7,5 6,2 7,1 14 7 21 11 NNE 1025,4 15 2 0,0
12.01.2018 14:00:00 6,4 3,0 7,7 7,9 5,8 7,1 15 8 22 12 NNE 1025,3 15 3 0,0
12.01.2018 13:00:00 6,4 2,7 7,6 7,9 5,4 7,1 15 8 21 12 NE 1025,7 12 40 0,0
12.01.2018 12:00:00 6,2 2,6 8,2 6,2 5,1 7,1 13 7 20 11 NNE 1025,9 12 24 0,0
12.01.2018 11:00:00 5,2 2,3 5,6 4,7 4,9 7,1 13 7 20 11 NE 1025,9 15 0 0,0
12.01.2018 10:00:00 4,5 2,0 4,6 3,9 4,9 7,1 14 8 18 10 NNE 1025,4 15 0 0,0
12.01.2018 09:00:00 3,8 1,9 3,3 3,3 5,0 7,1 13 7 16 9 NNE 1025,0 25 0 0,0
12.01.2018 08:00:00 3,8 1,8 2,9 3,3 5,2 7,1 10 5 16 9 NE 1024,6 18 0 0,0
12.01.2018 07:00:00 3,5 1,7 2,5 3,3 5,3 7,1 10 6 14 8 NE 1024,4 9 0 0,0
12.01.2018 06:00:00 3,5 1,5 2,5 3,5 5,5 7,1 10 5 17 9 NE 1024,0 9 0 0,0
12.01.2018 05:00:00 3,8 1,6 2,8 3,8 5,7 7,1 11 6 16 9 NE 1023,8 8 0 0,0
12.01.2018 04:00:00 3,9 2,0 2,7 4,2 5,9 7,1 9 5 14 7 NE 1023,4 9 0 0,0
12.01.2018 03:00:00 4,5 2,3 3,9 4,6 6,0 7,1 8 4 15 8 E 1023,0 9 0 0,0
12.01.2018 02:00:00 5,0 2,8 4,4 5,0 6,1 7,1 11 6 15 8 ENE 1022,6 10 0 0,0
12.01.2018 01:00:00 5,5 3,5 4,8 5,3 6,2 7,1 7 4 14 7 NE 1022,1 10 0 0,0
12.01.2018 00:00:00 6,1 3,8 5,3 5,6 6,2 7,1 7 4 12 6 NE 1021,6 10 0 0,0
11.01.2018 23:00:00 6,7 4,7 6,1 5,7 6,3 7,1 11 6 16 9 NE 1021,3 11 0 0,0
11.01.2018 22:00:00 5,7 4,6 5,2 5,8 6,4 7,1 4 2 6 3 ENE 1020,7 19 0 0,0
11.01.2018 21:00:00 5,6 4,3 5,4 5,8 6,5 7,1 3 1 4 2 SSE 1020,5 22 0 0,0
11.01.2018 20:00:00 5,4 4,1 4,7 5,8 6,6 7,1 4 2 5 3 N 1020,1 20 0 0,0
11.01.2018 19:00:00 5,9 4,4 3,7 6,2 6,7 7,1 3 2 6 3 NE 1019,3 21 0 0,0
11.01.2018 18:00:00 7,0 4,6 5,4 6,8 6,8 7,1 4 2 9 5 E 1018,7 20 0 0,0
11.01.2018 17:00:00 7,7 4,6 7,0 7,5 6,8 7,1 6 3 8 4 N 1018,0 25 0 0,0
11.01.2018 16:00:00 8,0 5,0 7,7 8,3 6,6 7,1 3 2 11 6 NE 1017,4 25 0 0,0
11.01.2018 15:00:00 8,6 4,6 9,0 9,4 6,1 7,1 7 4 10 6 N 1016,7 25 30 0,0
11.01.2018 14:00:00 8,5 3,6 10,8 9,0 5,6 7,1 4 2 7 4 N 1016,2 25 31 0,0
11.01.2018 13:00:00 7,1 4,1 7,1 6,7 5,3 7,1 4 2 7 4 W 1016,2 25 0 0,0
11.01.2018 12:00:00 6,3 4,1 6,4 5,9 5,1 7,1 4 2 5 3 NNE 1016,3 30 0 0,0
11.01.2018 11:00:00 5,5 4,2 5,2 4,8 5,0 7,2 0 0 5 3 N 1016,1 30 0 0,0
11.01.2018 10:00:00 4,1 3,5 3,8 4,0 4,9 7,1 3 1 5 3 E 1015,6 40 0 0,0
11.01.2018 09:00:00 3,8 3,3 3,5 3,8 5,0 7,1 3 2 4 2 SSW 1015,0 30 0 0,0
11.01.2018 08:00:00 3,3 2,7 2,9 3,6 5,0 7,2 4 2 5 3 NNE 1014,4 25 0 0,0
11.01.2018 07:00:00 2,9 2,5 2,5 3,6 5,1 7,2 3 2 6 3 ESE 1013,8 15 0 0,0
11.01.2018 06:00:00 3,2 2,5 2,4 3,7 5,1 7,1 3 2 6 3 E 1013,5 15 0 0,0
11.01.2018 05:00:00 3,2 2,8 3,0 3,6 5,2 7,2 3 2 6 4 S 1013,2 26 0 0,0
11.01.2018 04:00:00 2,7 2,1 1,7 3,5 5,3 7,1 1 1 6 3 SSE 1013,0 14 0 0,0
11.01.2018 03:00:00 2,7 2,3 2,7 3,5 5,5 7,2 3 2 5 3 NNE 1012,9 15 0 0,0
11.01.2018 02:00:00 1,8 1,5 0,0 3,2 5,7 7,2 4 2 5 3 E 1012,6 8 0 0,0
11.01.2018 01:00:00 3,4 3,0 0,9 3,9 6,0 7,2 2 1 6 3 E 1012,8 10 0 0,0
11.01.2018 00:00:00 3,5 3,0 2,2 4,4 6,2 7,2 5 3 6 4 ESE 1013,0 14 0 0,0
10.01.2018 23:00:00 4,7 4,1 2,3 4,8 6,3 7,2 3 2 5 3 W 1012,7 20 0 0,0
10.01.2018 22:00:00 5,6 5,0 4,0 5,7 6,4 7,2 2 1 6 3 E 1012,6 28 0 0,0
10.01.2018 21:00:00 6,8 4,9 5,6 6,2 6,5 7,2 3 2 7 4 SE 1012,6 31 0 0,1
10.01.2018 20:00:00 7,7 4,3 6,5 6,2 6,5 7,2 4 2 17 9 SE 1012,5 52 0 0,0
10.01.2018 19:00:00 9,1 2,9 7,9 6,4 6,6 7,2 13 7 21 11 SSW 1012,2 48 0 0,0
10.01.2018 18:00:00 8,3 3,5 7,0 6,6 6,6 7,2 8 4 14 7 SSW 1011,8 48 0 0,0
10.01.2018 17:00:00 8,5 3,8 7,3 7,0 6,6 7,2 8 5 11 6 SSW 1011,6 40 0 0,0
10.01.2018 16:00:00 8,6 4,1 7,1 7,6 6,5 7,2 5 3 8 4 S 1011,3 45 4 0,0
10.01.2018 15:00:00 8,7 4,8 8,5 8,0 6,3 7,2 6 3 13 7 SSW 1011,3 45 0 0,0
10.01.2018 14:00:00 8,9 5,0 8,9 8,3 5,9 7,2 6 3 10 6 SSW 1011,1 45 41 0,0
10.01.2018 13:00:00 9,6 4,7 10,1 8,0 5,5 7,2 4 2 9 5 SW 1011,7 35 59 0,0
10.01.2018 12:00:00 8,4 5,5 9,0 6,5 5,2 7,2 9 5 11 6 W 1012,5 35 36 0,0
10.01.2018 11:00:00 7,0 5,1 6,9 5,2 5,0 7,3 2 1 5 3 N 1013,0 45 3 0,0
10.01.2018 10:00:00 4,6 3,9 4,4 4,0 5,0 7,3 3 2 5 3 NNW 1013,2 45 0 0,0
10.01.2018 09:00:00 3,9 3,3 2,7 3,7 5,0 7,3 0 0 5 3 N 1013,3 45 0 0,0
10.01.2018 08:00:00 3,6 3,3 2,7 3,6 5,1 7,3 2 1 6 3 E 1013,4 7 0 0,0

tt = temperature
td = dewpoint
tt 5cm = temperature 5cm
tt -5cm = temperature -5cm
tt -20cm = temperature -20cm
tt -100cm = temperature -100cm
ff = wind speed
fx = gusts
dd = wind direction
ppp = reduced air pressure
vv = visibility
sd = sunshine duration
rr = precipitation

Next stations